Location: Berg
(47.2344°N, 9.5296°E)
Time: 03:39:09
(UTC+00:00)

ARGOS - Visible Passes

Search period start: 13 May 2021 00:00
Search period end: 23 May 2021 00:00
Orbit: 819 x 835 km, 98.4° (Epoch: 12 May)

Date Brightness Start Highest point End Pass type
(mag) Time Alt. Az. Time Alt. Az. Time Alt. Az.
16 May 6.2 20:01:32 10° W 20:02:37 11° W 20:03:42 10° WNW visible
17 May 5.8 19:40:31 10° SW 19:43:41 16° W 19:46:53 10° NW visible
22 May 5.9 19:48:17 10° WSW 19:50:52 13° W 19:53:27 10° WNW visible
